Regional Weather Roundup
Issued by NWS

Home | Current Version | Previous Version | Graphics & Text | Print | Product List | Glossary On
Versions: 1 2 3 4 5 6 7 8 9 10 11 12 13 14 15 16 17 18 19 20 21 22 23 24 25 26 27 28 29 30 31 32 33 34 35 36 37 38 39 40 41 42 43 44 45 46 47 48 49 50
000
ASUS44 KMEG 240000
RWRTN
TENNESSEE HOURLY STATE WEATHER ROUNDUP
NATIONAL WEATHER SERVICE MEMPHIS TN
700 PM CDT WED JUL 23 2014

TNZ002-004-019-021-049-052-054-088>092-240100-
WEST TENNESSEE

CITY           SKY/WX    TMP DP  RH WIND       PRES   REMARKS
MEMPHIS INTL   CLOUDY    75  70  84 NW3       29.98R
NWS MEMPHIS      N/A     76 N/A N/A MISG        N/A
JACKSON        CLOUDY    76  71  85 N5        29.99R
DYERSBURG      CLOUDY    75  63  64 N3        30.01R
UNION CITY     SUNNY     73  70  88 N3        29.99R
PARIS          MOSUNNY   75  70  83 N9        30.00R
LEXINGTON      SUNNY     77  70  78 CALM      29.98R
$$

TNZ008-025-027-028-033-062-065-066-240100-
NORTH MIDDLE TENNESSEE

CITY           SKY/WX    TMP DP  RH WIND       PRES   REMARKS
NASHVILLE      PTSUNNY   86  71  60 NW8       29.96R HX  91
CLARKSVILLE    PTSUNNY   83  70  64 N13       29.97R
COOKEVILLE     CLEAR     81  73  78 CALM      29.99R
CROSSVILLE     CLEAR     76  70  82 CALM      30.05R
$$

TNZ061-075-076-078-094-096-097-240100-
SOUTH MIDDLE TENNESSEE

CITY           SKY/WX    TMP DP  RH WIND       PRES   REMARKS
FAYETTEVILLE   CLEAR     79  70  73 S9        29.97F
TULLAHOMA      CLEAR     81  70  69 SW5       30.00R
WINCHESTER     CLEAR     82  73  74 W5        29.98R
MCMINNVILLE    CLEAR     84  72  65 CALM      29.99R
COLUMBIA       SUNNY     82  75  78 SW8       29.95S
SHELBYVILLE    CLEAR     84  73  70 SW5       29.98S HX  91
$$

TNZ017-018-042-046-047-240100-
NORTHEAST TENNESSEE

CITY           SKY/WX    TMP DP  RH WIND       PRES   REMARKS
TRI CITIES     MOCLDY    78  69  73 CALM      29.99F
ELIZABETHTON   CLEAR     73  70  88 CALM      30.00F
$$

TNZ012-013-036-069-073-074-240100-
CENTRAL EAST TENNESSEE

CITY           SKY/WX    TMP DP  RH WIND       PRES   REMARKS
KNOXVILLE      MOCLDY    78  69  73 S7        29.97F
OAK RIDGE      PTCLDY    77  71  82 CALM      30.00F
GATLINBURG     CLEAR     77  72  83 CALM      29.97F
$$

TNZ083-085-099-240100-
SOUTHEAST TENNESSEE

CITY           SKY/WX    TMP DP  RH WIND       PRES   REMARKS
CHATTANOOGA    PTCLDY    85  70  60 SE7       29.97F
$$

SKY/WX REPORTED AS FAIR MEANS FEW OR NO CLOUDS BELOW
12 THOUSAND FEET.




USA.gov is the U.S. government's official web portal to all federal, state and local government web resources and services.